Albany, NY

3:37 AM EST on December 11, 2019 (GMT -0500)
Albany International

Weather History for KALB - November, 2019

Change the Weather History Date:

Tuesday, November 12, 2019

  Actual Average Record
Temperature  
Mean Temperature 26 °F 41 °F  
Max Temperature 33 °F 49 °F 68 °F (1909)
Min Temperature 19 °F 33 °F 15 °F (1976)
Degree Days  
Heating Degree Days 39 24  
Month to date heating degree days 312 268  
Since 1 July heating degree days 744 913  
Cooling Degree Days 0 0  
Month to date cooling degree days 0 0  
Year to date cooling degree days 774 598  
Moisture  
Dew Point 19 °F    
Average Humidity 71    
Maximum Humidity 85    
Minimum Humidity 50    
Precipitation  
Precipitation 0.16 in 0.10 in 1.43 in (1995)
Month to date precipitation 0.65 1.32  
Year to date precipitation 39.34 34.45  
Snow  
Snow 0.60 in 0.00 in 7.30 in (1968)
Month to date snowfall 0.6 0.5  
Since 1 July snowfall 0.6 0.8  
Since 1 September snowfall 0.6 0.8  
Snow Depth 1.0 in    
Sea Level Pressure  
Sea Level Pressure 29.92 in    
Wind  
Wind Speed 8 mph ()    
Max Wind Speed 23 mph    
Max Gust Speed 32 mph    
Visibility 8.0 miles    
Events Rain , Snow    
T = Trace of Precipitation, MM = Missing Value Source: Averaged Metar Reports

Daily Weather History Graph

Daily Weather History Graph

Search for Another Location

Airport or City:

Astronomy

Nov. 12, 2019 Rise Set
Actual Time 6:42 AM EST 4:35 PM EST
Civil Twilight 6:12 AM EST 5:05 PM EST
Nautical Twilight 5:38 AM EST 5:39 PM EST
Astronomical Twilight 5:05 AM EST 6:12 PM EST
Moon 5:01 PM EST (11/12) 6:30 AM EST (11/12)
Length of Visible Light 10h 52m
Length of Day
9h 52m
Full, 100% of the Moon is Illuminated
Nov 12
Full
Nov 19
Last Quarter
Nov 26
New
Dec 4
First Quarter
Dec 12
Full

Hourly Weather History & Observations

Time (EST) Temp. Windchill Dew Point Humidity Pressure Visibility Wind Dir Wind Speed Gust Speed Precip Events Conditions
12:51 AM 30.9 °F 22.8 °F 24.1 °F 76% 29.83 in 10.0 mi NNE 9.2 mph - N/A   Overcast
1:14 AM 30.0 °F 23.2 °F 24.1 °F 79% 29.79 in 10.0 mi NE 6.9 mph - N/A   Overcast
1:51 AM 30.0 °F 24.1 °F 24.1 °F 79% 29.78 in 10.0 mi North 5.8 mph - N/A   Overcast
3:35 AM 30.9 °F 26.2 °F 25.0 °F 79% 29.77 in 10.0 mi Variable 4.6 mph - N/A   Overcast
3:51 AM 30.9 °F 26.2 °F 25.0 °F 79% 29.78 in 8.0 mi NNW 4.6 mph - 0.00 in Rain Light Freezing Rain
4:51 AM 30.9 °F - 27.0 °F 85% 29.78 in 7.0 mi Calm Calm - 0.02 in Rain Light Freezing Rain
5:38 AM 32.0 °F - 28.0 °F 85% 29.78 in 5.0 mi Calm Calm - 0.03 in Rain Light Freezing Rain
5:51 AM 32.0 °F - 28.0 °F 85% 29.80 in 5.0 mi Calm Calm - 0.05 in Rain Light Freezing Rain
6:07 AM 32.0 °F - 28.0 °F 85% 29.79 in 5.0 mi Calm Calm - 0.01 in Snow Light Ice Pellets
6:13 AM 32.0 °F - 28.0 °F 85% 29.79 in 2.5 mi Calm Calm - 0.02 in Snow Light Snow
6:23 AM 32.0 °F 28.7 °F 28.0 °F 85% 29.80 in 1.5 mi NNW 3.5 mph - 0.03 in Snow Light Snow
6:51 AM 30.9 °F 20.2 °F 26.1 °F 82% 29.82 in 1.8 mi WNW 15.0 mph - 0.05 in Snow Light Snow
6:59 AM 30.9 °F 21.7 °F 26.1 °F 82% 29.82 in 1.8 mi West 11.5 mph - 0.00 in Snow Light Snow
7:51 AM 30.0 °F 20.5 °F 24.1 °F 79% 29.86 in 1.8 mi WNW 11.5 mph 18.4 mph 0.02 in Snow Light Snow
8:45 AM 28.4 °F 19.7 °F 23.0 °F 80% 29.87 in 2.0 mi NNW 9.2 mph - 0.02 in Snow Light Snow
8:51 AM 28.0 °F 18.1 °F 23.0 °F 81% 29.89 in 10.0 mi NW 11.5 mph - 0.02 in Snow Light Snow
8:56 AM 28.0 °F 18.1 °F 21.9 °F 78% 29.88 in 10.0 mi WNW 11.5 mph - 0.00 in Snow Light Snow
9:51 AM 26.1 °F 14.0 °F 17.1 °F 69% 29.91 in 10.0 mi WNW 15.0 mph 20.7 mph 0.00 in   Overcast
10:51 AM 27.0 °F 15.2 °F 18.0 °F 69% 29.94 in 10.0 mi WNW 15.0 mph 21.9 mph N/A   Overcast
11:02 AM 26.1 °F 15.6 °F 17.1 °F 69% 29.93 in 10.0 mi WNW 11.5 mph 23.0 mph N/A   Overcast
11:30 AM 26.1 °F 12.7 °F 17.1 °F 69% 29.93 in 10.0 mi West 18.4 mph 25.3 mph N/A   Mostly Cloudy
11:51 AM 26.1 °F 12.7 °F 16.0 °F 66% 29.95 in 10.0 mi West 18.4 mph 31.1 mph N/A   Mostly Cloudy
12:06 PM 26.1 °F 14.5 °F 16.0 °F 66% 29.94 in 10.0 mi WNW 13.8 mph 23.0 mph N/A   Mostly Cloudy
1:51 PM 28.0 °F 15.3 °F 15.1 °F 58% 29.98 in 10.0 mi NW 18.4 mph 28.8 mph N/A   Mostly Cloudy
2:51 PM 28.0 °F 18.6 °F 14.0 °F 56% 30.00 in 10.0 mi NW 10.4 mph 21.9 mph N/A   Mostly Cloudy
3:51 PM 28.9 °F 16.1 °F 15.1 °F 56% 30.01 in 10.0 mi NW 19.6 mph - N/A   Mostly Cloudy
4:51 PM 26.1 °F 13.6 °F 12.9 °F 58% 30.04 in 10.0 mi WNW 16.1 mph 32.2 mph N/A   Scattered Clouds
5:51 PM 25.0 °F 11.7 °F 10.9 °F 55% 30.06 in 10.0 mi WNW 17.3 mph 25.3 mph N/A   Partly Cloudy
6:51 PM 24.1 °F 11.5 °F 9.0 °F 53% 30.09 in 10.0 mi WNW 15.0 mph - N/A   Partly Cloudy
7:51 PM 23.0 °F 11.7 °F 9.0 °F 55% 30.10 in 10.0 mi NW 11.5 mph - N/A   Partly Cloudy
8:51 PM 21.9 °F 8.7 °F 8.1 °F 55% 30.11 in 10.0 mi WNW 15.0 mph 19.6 mph N/A   Partly Cloudy
9:51 PM 21.0 °F 6.2 °F 8.1 °F 57% 30.13 in 10.0 mi NW 18.4 mph 21.9 mph N/A   Partly Cloudy
10:51 PM 19.9 °F 8.6 °F 6.1 °F 55% 30.14 in 10.0 mi WNW 10.4 mph - N/A   Partly Cloudy
11:51 PM 19.0 °F 8.2 °F 3.9 °F 52% 30.15 in 10.0 mi WNW 9.2 mph - N/A   Partly Cloudy